Location: 22
(39.7117°N, 89.5929°W)
Time: 08:26:15
(UTC-05:00)

Vanguard 1 Rocket - Pass Details

Date: 14 February 2023
Orbit: 652 x 4223 km, 34.3° (Epoch: 24 March)

Event Time Altitude Azimuth Distance (km) Brightness Sun altitude
Rises 15:17:38 0° 277° (W) 5,095 11.8 22.1°
Reaches altitude 10° 15:20:40 10° 270° (W) 4,487 11.9 21.6°
Maximum altitude 15:32:45 40° 207° (SSW) 3,922 11.9 19.8°
Drops below altitude 10° 15:52:45 10° 148° (SSE) 7,207 12.0 16.7°
Sets 15:59:33 0° 142° (SE) 8,423 12.3 15.6°
